Weather History for KLBE - August, 2014

Change the Weather History Date:

Sunday, August 3, 2014

  Actual Average Record
Temperature  
Mean Temperature 66 °F -  
Max Temperature 73 °F 81 °F 91 °F (1997)
Min Temperature 60 °F 60 °F 53 °F (1998)
Cooling Degree Days 2    
Growing Degree Days 16 (Base 50)    
Moisture  
Dew Point 65 °F    
Average Humidity 98    
Maximum Humidity 100    
Minimum Humidity 78    
Precipitation  
Precipitation 0.00 in - - ()
Sea Level Pressure  
Sea Level Pressure 30.12 in    
Wind  
Wind Speed 3 mph (SW)    
Max Wind Speed 12 mph    
Max Gust Speed -    
Visibility 8 miles    
Events Fog , Rain , Thunderstorm    
Averages and records for this station are not official NWS values.
T = Trace of Precipitation, MM = Missing Value Source: NWS Daily Summary

Daily Weather History Graph

Daily Weather History Graph

Search for Another Location

Airport or City:

Trip Planner

Search our weather history database for the weather conditions in past years. The results will help you decide how hot, cold, wet, or windy it might be!

Date:

Astronomy

Aug. 03, 2014 Rise Set
Actual Time 6:17 AM EDT 8:29 PM EDT
Civil Twilight 5:46 AM EDT 8:59 PM EDT
Nautical Twilight 5:09 AM EDT 9:37 PM EDT
Astronomical Twilight 4:28 AM EDT 10:17 PM EDT
Moon 1:37 PM EDT (8/3) No Moon Set
Length of Visible Light 15h 13m
Length of Day
14h 12m
Waxing Crescent, 46% of the Moon is Illuminated
Aug 3
Waxing Crescent
Aug 3
First Quarter
Aug 10
Full
Aug 17
Last Quarter
Aug 25
New

Hourly Weather History & Observations

Time (EDT) Temp. Dew Point Humidity Pressure Visibility Wind Dir Wind Speed Gust Speed Precip Events Conditions
12:35 AM 64.4 °F 64.4 °F 100% 30.10 in 10.0 mi North 5.8 mph - 0.00 in   Mostly Cloudy
12:55 AM 64.4 °F 64.4 °F 100% 30.09 in 10.0 mi NE 4.6 mph - 0.00 in   Scattered Clouds
1:15 AM 64.4 °F 64.4 °F 100% 30.09 in 10.0 mi Calm Calm - 0.00 in   Scattered Clouds
1:35 AM 64.4 °F 64.4 °F 100% 30.09 in 10.0 mi Calm Calm - 0.00 in   Scattered Clouds
1:55 AM 64.4 °F 64.4 °F 100% 30.09 in 4.0 mi Calm Calm - 0.00 in   Scattered Clouds
2:35 AM 64.4 °F 64.4 °F 100% 30.09 in 8.0 mi Calm Calm - 0.00 in   Mostly Cloudy
2:55 AM 64.4 °F 64.4 °F 100% 30.10 in 5.0 mi Calm Calm - 0.00 in   Mostly Cloudy
3:15 AM 64.4 °F 64.4 °F 100% 30.10 in 8.0 mi Calm Calm - 0.00 in   Mostly Cloudy
3:35 AM 64.4 °F 64.4 °F 100% 30.10 in 10.0 mi Calm Calm - 0.00 in Rain Light Rain
4:15 AM 64.4 °F 64.4 °F 100% 30.10 in 7.0 mi Calm Calm - 0.00 in   Overcast
4:55 AM 64.4 °F 64.4 °F 100% 30.11 in 10.0 mi Calm Calm - 0.00 in   Overcast
5:15 AM 64.4 °F 64.4 °F 100% 30.11 in 10.0 mi South 3.5 mph - 0.00 in   Overcast
5:35 AM 64.4 °F 64.4 °F 100% 30.11 in 10.0 mi SSW 4.6 mph - 0.00 in   Overcast
5:55 AM 64.4 °F 64.4 °F 100% 30.11 in 10.0 mi SSW 5.8 mph - 0.00 in   Mostly Cloudy
6:47 AM 64.4 °F 64.4 °F 100% 30.12 in 8.0 mi Calm Calm - N/A   Overcast
7:47 AM 64.4 °F 64.4 °F 100% 30.13 in 8.0 mi Calm Calm - N/A   Overcast
8:45 AM 66.2 °F 66.2 °F 100% 30.13 in 10.0 mi SSW 3.5 mph - N/A   Overcast
9:10 AM 66.2 °F 66.2 °F 100% 30.13 in 10.0 mi South 3.5 mph - N/A   Overcast
9:45 AM 66.2 °F 66.2 °F 100% 30.13 in 10.0 mi SW 3.5 mph - N/A   Overcast
10:45 AM 68.0 °F 66.2 °F 94% 30.14 in 10.0 mi SSW 6.9 mph - N/A   Overcast
11:45 AM 69.8 °F 66.2 °F 88% 30.15 in 10.0 mi Calm Calm - N/A Thunderstorm Mostly Cloudy
12:50 PM 66.2 °F 66.2 °F 100% 30.14 in 8.0 mi West 9.2 mph - N/A   Mostly Cloudy
1:50 PM 69.8 °F 64.4 °F 83% 30.13 in 8.0 mi West 6.9 mph - N/A   Mostly Cloudy
2:50 PM 73.4 °F 66.2 °F 78% 30.10 in 10.0 mi SW 9.2 mph - N/A   Mostly Cloudy
3:50 PM 73.4 °F 66.2 °F 78% 30.10 in 10.0 mi SW 9.2 mph - N/A   Mostly Cloudy
4:50 PM 69.8 °F 68.0 °F 94% 30.10 in - Calm Calm - N/A   Mostly Cloudy
6:50 PM 69.8 °F 69.8 °F 100% 30.10 in 15.0 mi SW 11.5 mph - N/A   Mostly Cloudy
7:50 PM 66.2 °F 66.2 °F 100% 30.11 in 20.0 mi South 6.9 mph - N/A   Mostly Cloudy
8:50 PM 66.2 °F 66.2 °F 100% 30.12 in 15.0 mi Calm Calm - N/A   Mostly Cloudy
9:50 PM 64.4 °F 64.4 °F 100% 30.13 in 4.0 mi Calm Calm - N/A   Scattered Clouds
10:15 PM 64.4 °F 64.4 °F 100% 30.14 in 5.0 mi Calm Calm - 0.00 in   Clear
10:35 PM 62.6 °F 62.6 °F 100% 30.14 in 1.5 mi Calm Calm - 0.00 in   Clear
10:55 PM 62.6 °F 62.6 °F 100% 30.14 in 1.0 mi Calm Calm - 0.00 in   Mostly Cloudy
11:15 PM 62.6 °F 62.6 °F 100% 30.14 in 0.8 mi Calm Calm - 0.00 in   Mostly Cloudy
11:35 PM 60.8 °F 60.8 °F 100% 30.14 in 0.2 mi Calm Calm - 0.00 in Fog Fog
11:55 PM 62.6 °F 62.6 °F 100% 30.14 in 0.2 mi Calm Calm - 0.00 in Fog Fog